Flagstaff, AZ

10:22 AM MST on July 24, 2016 (GMT -0700)
Flagstaff Pulliam

Weather History for KFLG - July, 2013

Change the Weather History Date:

Wednesday, July 3, 2013

  Actual Average Record
Temperature  
Mean Temperature 67 °F 65 °F  
Max Temperature 82 °F 82 °F 93 °F (2007)
Min Temperature 51 °F 48 °F 34 °F (1997)
Degree Days  
Heating Degree Days 0 2  
Month to date heating degree days 0 6  
Since 1 July heating degree days 0 6  
Cooling Degree Days 2 2  
Month to date cooling degree days 15 6  
Year to date cooling degree days 65 23  
Growing Degree Days 16 (Base 50)    
Moisture  
Dew Point 50 °F    
Average Humidity 60    
Maximum Humidity 89    
Minimum Humidity 30    
Precipitation  
Precipitation 0.05 in 0.04 in 0.92 in (1944)
Month to date precipitation 1.81 0.12  
Year to date precipitation 7.07 8.59  
Snow  
Snow 0.00 in 0.00 in 0.00 in (2015)
Month to date snowfall 0.0 0.0  
Since 1 July snowfall 0.0 0.0  
Snow Depth 0.00 in    
Sea Level Pressure  
Sea Level Pressure 29.99 in    
Wind  
Wind Speed 12 mph (West)    
Max Wind Speed 24 mph    
Max Gust Speed 35 mph    
Visibility 10 miles    
Events Rain , Thunderstorm    
T = Trace of Precipitation, MM = Missing Value Source: NWS Daily Summary

Daily Weather History Graph

Daily Weather History Graph

Search for Another Location

Airport or City:

Trip Planner

Search our weather history database for the weather conditions in past years. The results will help you decide how hot, cold, wet, or windy it might be!

Date:

Astronomy

Jul. 03, 2013 Rise Set
Actual Time 5:17 AM MST 7:44 PM MST
Civil Twilight 4:47 AM MST 8:14 PM MST
Nautical Twilight 4:10 AM MST 8:50 PM MST
Astronomical Twilight 3:30 AM MST 9:30 PM MST
Moon 1:52 AM MST (7/3) 4:02 PM MST (7/3)
Length of Visible Light 15h 26m
Length of Day
14h 27m
Waning Crescent, 17% of the Moon is Illuminated
Jul 3
Waning Crescent
Jul 8
New
Jul 15
First Quarter
Jul 22
Full
Jul 29
Last Quarter

Hourly Weather History & Observations

Time (MST) Temp. Dew Point Humidity Pressure Visibility Wind Dir Wind Speed Gust Speed Precip Events Conditions
12:10 AM 59.0 °F 48.2 °F 67% 30.28 in 10.0 mi WSW 13.8 mph - N/A   Clear
12:57 AM 59.0 °F 48.9 °F 69% 29.93 in 10.0 mi WSW 16.1 mph - N/A   Clear
1:57 AM 55.9 °F 48.9 °F 77% 29.92 in 10.0 mi WSW 13.8 mph - N/A   Clear
2:57 AM 53.1 °F 48.0 °F 83% 29.99 in 10.0 mi West 13.8 mph - N/A   Clear
3:57 AM 52.0 °F 48.0 °F 86% 30.05 in 10.0 mi West 3.5 mph - N/A   Clear
4:57 AM 54.0 °F 48.0 °F 80% 30.05 in 10.0 mi West 12.7 mph 20.7 mph N/A   Clear
5:57 AM 52.0 °F 48.0 °F 86% 30.05 in 10.0 mi West 11.5 mph 20.7 mph N/A   Partly Cloudy
6:57 AM 62.1 °F 53.1 °F 72% 30.02 in 10.0 mi West 12.7 mph - N/A   Clear
7:57 AM 68.0 °F 51.1 °F 55% 30.01 in 10.0 mi WSW 15.0 mph - N/A   Clear
8:57 AM 71.1 °F 52.0 °F 51% 29.99 in 10.0 mi WSW 15.0 mph - N/A   Scattered Clouds
9:57 AM 71.1 °F 53.1 °F 53% 29.99 in 10.0 mi WSW 12.7 mph - N/A   Clear
10:57 AM 75.0 °F 53.1 °F 46% 29.98 in 10.0 mi WSW 13.8 mph - N/A   Scattered Clouds
11:29 AM 73.4 °F 53.6 °F 50% 30.28 in 10.0 mi West 15.0 mph - N/A Thunderstorm Thunderstorm
11:57 AM 73.9 °F 53.1 °F 48% 29.94 in 10.0 mi WNW 8.1 mph 17.3 mph N/A Thunderstorm Thunderstorm
12:04 PM 73.4 °F 51.8 °F 47% 30.26 in 10.0 mi West 8.1 mph - N/A   Mostly Cloudy
12:32 PM 68.0 °F 60.8 °F 78% 30.26 in 10.0 mi West 16.1 mph - 0.05 in Rain , Thunderstorm Light Thunderstorms and Rain
12:57 PM 71.1 °F 53.1 °F 53% 29.95 in 10.0 mi West 18.4 mph 26.5 mph 0.05 in Thunderstorm Thunderstorm
1:57 PM 77.0 °F 50.0 °F 39% 29.92 in 10.0 mi West 6.9 mph - N/A   Partly Cloudy
2:57 PM 75.9 °F 45.0 °F 33% 29.93 in 10.0 mi WNW 11.5 mph 17.3 mph N/A   Scattered Clouds
3:57 PM 80.1 °F 48.0 °F 32% 29.88 in 10.0 mi WNW 6.9 mph - N/A   Clear
4:57 PM 80.1 °F 46.9 °F 31% 29.85 in 10.0 mi WSW 19.6 mph - N/A   Clear
5:57 PM 73.9 °F 50.0 °F 43% 29.90 in 10.0 mi WNW 11.5 mph 34.5 mph 0.00 in Rain Light Rain
6:57 PM 73.0 °F 48.0 °F 41% 29.87 in 10.0 mi West 11.5 mph 21.9 mph 0.00 in   Scattered Clouds
7:57 PM 69.1 °F 48.9 °F 49% 29.86 in 10.0 mi WNW 3.5 mph - N/A   Clear
8:57 PM 63.0 °F 50.0 °F 63% 29.88 in 10.0 mi WNW 11.5 mph 19.6 mph N/A   Clear
9:57 PM 61.0 °F 50.0 °F 67% 29.89 in 10.0 mi West 11.5 mph 19.6 mph N/A   Clear
10:57 PM 63.0 °F 46.9 °F 56% 29.86 in 10.0 mi West 8.1 mph 20.7 mph N/A   Clear
11:57 PM 69.1 °F 43.0 °F 39% 29.82 in 10.0 mi West 9.2 mph 16.1 mph N/A   Clear